パンスターズ彗星

P/2020 MK4 ( PanSTARRS ) 2027

English version
Home page
Updated on November 20, 2022

---------------------------------------------------------------------

・ プロフィール

・ 軌道要素

                    Epoch = 2027 June  4.0 TT
     T = 2027 June 17.42375 TT        Peri. =  97.52478
     e = 0.0161466                    Node  =   0.64841 2000.0
     q = 6.1270803 AU                 Incl. =   6.78039
       a =  6.2276355 AU   n = 0.06341899   P =  15.54 years

・ 光度変化

        H = 14.0  G = 0.15

---------------------------------------------------------------------

軌道要素は、CBET 5191に掲載されたものです。
光度グラフはComet for Windowsで作成したものです。

---------------------------------------------------------------------

Copyright(C) Seiichi Yoshida (comet@aerith.net). All rights reserved.